Regional Weather Roundup
Issued by NWS Midland/Odessa, TX

Skip options and go directly to product.
Home | Oldest Version | Next Version | Current Version | All | Text Only | Save Text | Print | Product List | Glossary On

Skip product version selection by date and time.   
752
ASUS44 KMAF 291410
RWRMAF
MIDLAND AREA WEATHER ROUNDUP
NATIONAL WEATHER SERVICE MIDLAND TX
900 AM CDT FRI APR 29 2016

...IN SOUTHWEST TEXAS AND SOUTHEAST NEW MEXICO...

CITY           SKY/WX    TMP DP  RH WIND       PRES   REMARKS
ALPINE         SUNNY     67  30  25 NW8       29.92R
ANDREWS        FAIR      68  36  30 W16G22    29.76R
ARTESIA        SUNNY     63  43  48 W5        29.81R
BIG SPRING     MOSUNNY   70  55  58 SW20      29.75R
CARLSBAD       SUNNY     66  31  27 NW14      29.78R
DRYDEN           N/A     75  68  78 CALM      29.72R
FORT STOCKTON  SUNNY     68  35  29 W12       29.80R
GUAD PASS      SUNNY     55  25  31 W36G53    29.85R
HOBBS          SUNNY     63  46  55 W14       29.79R
MARFA          SUNNY     62  30  29 NW21      29.91R
MIDLAND AIRPK  SUNNY     73  44  35 W13G18    29.75R
MIDLAND INTL   SUNNY     73  45  36 W13       29.76R
ODESSA         SUNNY     71  44  37 W10       29.77R
PECOS          SUNNY     72  30  21 W15G22    29.79R
PRESIDIO       FAIR      73  32  22 W12       29.80R
SEMINOLE       SUNNY     65  40  40 NW16G22   29.77R
SNYDER           N/A     73  65  77 S21G26    29.69R
WINK           SUNNY     69  38  32 W10       29.76R
$$
...OTHER STATIONS IN TEXAS...

CITY           SKY/WX    TMP DP  RH WIND       PRES   REMARKS
ABILENE        PTSUNNY   72  66  81 S17G28    29.68R HAZE
AMARILLO       TSTM      49  47  93 NE23G32   29.74S
AUSTIN         CLOUDY    78  74  87 S15       29.70R FOG
BROWNSVILLE    CLOUDY    79  76  90 SE15G25   29.70R
CORPUS CHRISTI CLOUDY    80  75  84 SE26      29.69R
DALLAS FTW     CLOUDY    77  71  82 S10       29.70R
DEL RIO        CLOUDY    73  73 100 E12       29.67S FOG
EL PASO        SUNNY     58  19  22 W16       29.89R
HOUSTON INT    MOSUNNY   76  70  82 S20G25    29.76S
LUBBOCK        PTSUNNY   70  63  78 SW17G23   29.68R
SAN ANGELO     PTSUNNY   75  67  76 SW15      29.71R
SAN ANTONIO    CLOUDY    77  72  84 S12       29.72R
WACO           CLOUDY    77  73  87 S13       29.70R FOG
WICHITA FALLS  NOT AVBL
$$
...OTHER LOCATIONS IN NEW MEXICO...

CITY           SKY/WX    TMP DP  RH WIND       PRES   REMARKS
ALAMAGORDO     SUNNY     57  16  19 S13       29.86R
ALBUQUERQUE    MOSUNNY   46  39  76 CALM      29.86R
CANNON AFB     CLOUDY    49  47  95 N18G33    29.78R
CLOVIS         CLOUDY    48  43  81 N24G31    29.80R
HOLLOMAN AFB   SUNNY     57  19  22 SW10      29.85R
ROSWELL        SUNNY     60  45  57 NW5       29.79R
RUIDOSO          N/A     48   7  18 W16G25    29.88S
SANTA FE       MOSUNNY   37  35  92 N13       29.84S WCI  29
TRUTH OR CONSE SUNNY     53  21  28 NW10      29.86R
TUCUMCARI      CLOUDY    48  44  86 N12G21    29.82R
$$

USA.gov is the U.S. government's official web portal to all federal, state and local government web resources and services.